This is the latest recevied weather packets stored in our database for station/object N5JXS. If no packets are shown the sender has not sent any weather packets the latest 10 day(s).
| Time | Temp. | Humidity | Pressure | Rain* | Wind** | Luminosity | Snow |
|---|---|---|---|---|---|---|---|
| 1777914422 | 16.11° C | 29% | 1014.9 hPa | 0 mm | - | 587 W/m² | - |
| 1777914120 | 15.56° C | 30% | 1015 hPa | 0 mm | - | 436 W/m² | - |
| 1777913816 | 15.56° C | 30% | 1015.1 hPa | 0 mm | - | 384 W/m² | - |
| 1777913512 | 15.56° C | 32% | 1015.1 hPa | 0 mm | - | 430 W/m² | - |
| 1777913209 | 15.56° C | 32% | 1015 hPa | 0 mm | - | 464 W/m² | - |
| 1777912905 | 15° C | 33% | 1015.4 hPa | 0 mm | - | 373 W/m² | - |
| 1777912602 | 15° C | 33% | 1015.3 hPa | 0 mm | - | 355 W/m² | - |
| 1777912298 | 15° C | 33% | 1015.1 hPa | 0 mm | - | 301 W/m² | - |
| 1777911994 | 15.56° C | 33% | 1015.4 hPa | 0 mm | - | 315 W/m² | - |
| 1777911690 | 15° C | 34% | 1015.4 hPa | 0 mm | - | 343 W/m² | - |
| 1777911386 | 14.44° C | 33% | 1015.6 hPa | 0 mm | - | 293 W/m² | - |
| 1777911085 | 14.44° C | 33% | 1015.6 hPa | 0 mm | - | 239 W/m² | - |
| 1777910782 | 14.44° C | 34% | 1015.5 hPa | 0 mm | - | 218 W/m² | - |
| 1777910478 | 14.44° C | 33% | 1015.6 hPa | 0 mm | - | 194 W/m² | - |
| 1777910175 | 14.44° C | 34% | 1015.5 hPa | 0 mm | - | 185 W/m² | - |
| 1777909872 | 13.89° C | 35% | 1015.4 hPa | 0 mm | - | 157 W/m² | - |
| 1777909569 | 13.33° C | 36% | 1015.5 hPa | 0 mm | - | 151 W/m² | - |
| 1777909266 | 13.33° C | 36% | 1015.3 hPa | 0 mm | - | 126 W/m² | - |
| 1777908964 | 13.33° C | 36% | 1015.3 hPa | 0 mm | - | 121 W/m² | - |
| 1777908662 | 12.78° C | 36% | 1015.4 hPa | 0 mm | - | 120 W/m² | - |
| 1777908359 | 12.78° C | 36% | 1015.4 hPa | 0 mm | - | 116 W/m² | - |
| 1777908055 | 12.78° C | 35% | 1015.4 hPa | 0 mm | - | 114 W/m² | - |
| 1777907750 | 13.33° C | 35% | 1015.6 hPa | 0 mm | - | 122 W/m² | - |
| 1777907445 | 13.33° C | 35% | 1015.6 hPa | 0 mm | - | 139 W/m² | - |
| 1777907143 | 13.33° C | 35% | 1015.6 hPa | 0 mm | - | 133 W/m² | - |
* Rain latest hour (hover to see other rain measurements)
** Current wind speed in m/s (hover to see current wind gust speed)